Simultaneous Nadir Overpasses (SNOs) Predictions

Prediction of SNOs between LANDSAT-8 and METOP-A Satellite Orbit:

Table of predicted SNOs for the next 14.0 days since TLE Epoch: 1/31/2014
Index Date (LANDSAT-8) Time (LANDSAT-8) Lat,Lon (LANDSAT-8) SZA (LANDSAT-8 ) Date (METOP-A) Time (METOP-A) Lat,Lon (METOP-A) SZA (METOP-A ) Distance(km) Time Diff (sec)
1 02/02/2014 04:08:30 -81.17, -21.65 80.30 02/02/2014 04:07:28 -81.17, -21.71 80.34 1.06 62
2 02/02/2014 04:57:56 81.18, 146.14 99.71 02/02/2014 04:58:08 81.18, 146.04 99.71 1.78 12
3 02/04/2014 23:42:42 -81.17, 44.68 81.16 02/04/2014 23:41:47 -81.17, 44.69 81.17 0.32 55
4 02/05/2014 00:32:07 81.20,-147.18 98.91 02/05/2014 00:32:26 81.19,-147.22 98.91 0.90 19
5 02/07/2014 19:16:54 -81.17, 111.18 82.02 02/07/2014 19:16:07 -81.17, 111.03 82.05 2.68 47
6 02/07/2014 20:06:19 81.20, -80.69 98.04 02/07/2014 20:06:45 81.20, -80.53 98.07 2.75 26
7 02/10/2014 14:51:05 -81.18, 177.86 82.89 02/10/2014 14:50:26 -81.18, 177.69 82.92 2.97 39
8 02/10/2014 15:40:31 81.19, -14.41 97.12 02/10/2014 15:41:05 81.20, -14.29 97.15 2.23 34
9 02/13/2014 10:25:15 -81.19,-115.67 83.81 02/13/2014 10:24:44 -81.18,-115.69 83.83 0.73 31




NCC Satellite Simultaneous Nadir Overpasses (SNOs) Prediction Service
